• Join FlightAware (Why Join?)
  • Login
  • US Flag 
Rudolph Flight #1: Arrived! 
03:58AM EST


 

Airport Tracker/Info


-or-


 

Live Flight TrackerFlight Track Log ✈ SWA561 ✈ 16-Apr-2013 ✈ KOAK - KLAX

Flight Track Log - Related Links

Times and Time Zones

All times are in EDT time to prevent confusion due to time zone crossing. See the SWA561 flight status page for this flight to view local times or setup timezone preferences in your user account.

Time Position Orientation Groundspeed Altitude Reporting Facility
EDT Latitude Longitude Course Direction KTS MPH feet Rate Location/Type
07:44PM 37.7278 -122.2533 107° East 147 169 2,000  Level Oakland Center
07:45PM 37.7431 -122.3156 287° West 192 221 3,800 2,400 Climbing Oakland Center
07:46PM 37.7269 -122.3875 254° West 237 273 7,000 3,180 Climbing Oakland Center
07:47PM 37.6464 -122.4161 196° South 293 337 10,400 3,540 Climbing Oakland Center
07:48PM 37.5544 -122.4450 194° South 338 389 14,200 3,360 Climbing Oakland Center
07:49PM 37.2429 -122.2549 107° East  Level FlightAware Approximate
07:49PM 37.4594 -122.3506 142° Southeast 388 447 17,300  Level Oakland Center
07:50PM 37.3783 -122.2381 132° Southeast 430 495 20,200 3,000 Climbing Oakland Center
07:51PM 37.2928 -122.1211 133° Southeast 452 520 23,400 2,940 Climbing Oakland Center
07:52PM 37.2031 -122.0033 134° Southeast 465 535 26,200 2,280 Climbing Oakland Center
07:53PM 37.1128 -121.8792 132° Southeast 480 552 28,100 1,800 Climbing Oakland Center
07:54PM 37.0150 -121.7531 134° Southeast 503 579 29,900 2,280 Climbing Oakland Center
07:55PM 36.9167 -121.6244 134° Southeast 510 587 32,800 2,400 Climbing Oakland Center
07:56PM 36.8097 -121.4825 133° Southeast 506 582 34,800 1,080 Climbing Oakland Center
07:57PM 36.7144 -121.3553 133° Southeast 503 579 35,000 60 Climbing Oakland Center
07:58PM 36.6194 -121.2308 134° Southeast 496 571 35,000  Level Oakland Center
07:59PM 36.5239 -121.1064 134° Southeast 498 573 35,000  Level Oakland Center
08:00PM 36.4269 -120.9800 134° Southeast 503 579 35,000  Level Oakland Center
08:01PM 36.3311 -120.8553 134° Southeast 501 577 35,000  Level Oakland Center
08:02PM 36.2342 -120.7308 134° Southeast 504 580 35,000  Level Oakland Center
08:03PM 36.1375 -120.6042 133° Southeast 505 581 35,000  Level Oakland Center
08:04PM 36.0406 -120.4775 133° Southeast 506 582 35,000  Level Oakland Center
08:05PM 35.9228 -120.3294 134° Southeast 502 578 35,000  Level Oakland Center
08:06PM 35.8244 -120.2031 134° Southeast 506 582 35,000  Level Oakland Center
08:07PM 35.7244 -120.0783 135° Southeast 506 582 35,000 -360 Level Oakland Center
08:08PM 35.6222 -119.9569 136° Southeast 504 580 34,300 -780 Descending Oakland Center
08:09PM 35.4992 -119.8506 145° Southeast 531 611 33,500 -660 Descending Oakland Center
08:10PM 35.3725 -119.7414 145° Southeast 548 631 33,000 -300 Descending Oakland Center
08:11PM 35.2472 -119.6344 145° Southeast 547 629 33,000 -300 Level Oakland Center
08:12PM 35.1236 -119.5286 145° Southeast 541 623 32,500 -1,620 Descending Oakland Center
08:13PM 35.0028 -119.4258 145° Southeast 534 615 29,700 -2,760 Descending Oakland Center
08:14PM 34.8853 -119.3275 146° Southeast 520 598 27,000 -2,520 Descending Oakland Center
08:15PM 34.7756 -119.2325 145° Southeast 495 570 24,600 -2,280 Descending Oakland Center
08:16PM 34.6464 -119.1233 145° Southeast 472 543 21,800 -2,280 Descending Los Angeles Center
08:17PM 34.5389 -119.0347 146° Southeast 444 511 19,400 -2,460 Descending Los Angeles Center
08:18PM 34.4231 -118.9381 145° Southeast 420 483 16,800 -2,400 Descending Los Angeles Center
08:20PM 34.3269 -118.8700 150° Southeast 398 458 14,500 -2,220 Descending Los Angeles Center
08:21PM 34.2231 -118.8325 163° South 389 448 12,300 -1,560 Descending Los Angeles Center
08:22PM 34.1269 -118.7972 163° South 364 419 11,300 -1,020 Descending Los Angeles Center
08:23PM 34.0417 -118.7392 151° Southeast 320 368 10,200 -780 Descending Los Angeles Center
08:24PM 34.0272 -118.6378 100° East 277 319 9,800 -660 Descending Los Angeles Center
08:25PM 34.0197 -118.5622 97° East 270 311 8,900 -1,140 Descending Los Angeles Center
08:26PM 34.0108 -118.4564 96° East 256 295 7,500 -1,200 Descending Los Angeles Center
08:27PM 34.0189 -118.3819 83° East 242 278 6,400 -1,200 Descending Los Angeles Center
08:28PM 34.0239 -118.3028 86° East 238 274 5,100 -1,380 Descending Los Angeles Center
08:29PM 33.9906 -118.2528 129° Southeast 248 285 3,600 -1,380 Descending Los Angeles Center
08:30PM 33.9619 -118.2942 230° Southwest 199 229 2,300 -1,140 Descending Los Angeles Center
08:31PM 33.9583 -118.3444 265° West 150 173 1,300 -900 Descending Los Angeles Center
08:32PM 33.9556 -118.3817 265° West 128 147 500 -600 Descending Los Angeles Center
08:33PM 33.9508 -118.4228 262° West 120 138 100 -420 Descending Los Angeles Center
08:35PM 33.9425 -118.4081 231° Southwest  Level Estimated
08:42PM 33.9425 -118.4081 228° Southwest  Level Estimated